TimeEDT,TemperatureF,Dew PointF,Humidity,Sea Level PressureIn,VisibilityMPH,Wind Direction,Wind SpeedMPH,Gust SpeedMPH,PrecipitationIn,Events,Conditions,WindDirDegrees,DateUTC
12:51 AM,64.9,62.1,90,29.85,10.0,SW,4.6,-,0.04,,Mostly Cloudy,230,2013-07-24 04:51:00
1:51 AM,64.9,62.1,90,29.83,10.0,South,5.8,-,N/A,,Mostly Cloudy,180,2013-07-24 05:51:00
2:11 AM,64.4,62.6,94,29.86,10.0,SE,4.6,-,N/A,,Mostly Cloudy,130,2013-07-24 06:11:00
2:21 AM,64.4,60.8,88,29.85,10.0,Calm,Calm,-,N/A,,Scattered Clouds,0,2013-07-24 06:21:00
2:51 AM,63.0,61.0,93,29.81,10.0,Calm,Calm,-,N/A,,Scattered Clouds,0,2013-07-24 06:51:00
3:09 AM,64.4,60.8,88,29.83,10.0,Calm,Calm,-,N/A,,Mostly Cloudy,0,2013-07-24 07:09:00
3:51 AM,64.9,62.1,90,29.80,10.0,Calm,Calm,-,N/A,,Overcast,0,2013-07-24 07:51:00
4:51 AM,64.0,62.1,93,29.80,10.0,Calm,Calm,-,N/A,,Mostly Cloudy,0,2013-07-24 08:51:00
5:51 AM,64.9,63.0,93,29.81,10.0,Calm,Calm,-,N/A,,Overcast,0,2013-07-24 09:51:00
6:24 AM,64.4,62.6,94,29.85,10.0,Calm,Calm,-,N/A,,Overcast,0,2013-07-24 10:24:00
6:51 AM,66.0,63.0,90,29.83,10.0,Calm,Calm,-,N/A,,Overcast,0,2013-07-24 10:51:00
6:58 AM,66.2,62.6,88,29.86,10.0,Calm,Calm,-,N/A,,Overcast,0,2013-07-24 10:58:00
7:51 AM,66.9,64.0,90,29.84,10.0,North,3.5,-,0.00,,Overcast,360,2013-07-24 11:51:00
8:51 AM,66.9,64.0,90,29.86,10.0,Calm,Calm,-,0.00,,Overcast,0,2013-07-24 12:51:00
9:23 AM,66.2,62.6,88,29.91,10.0,NNW,6.9,-,0.00,Rain,Light Rain,340,2013-07-24 13:23:00
9:39 AM,66.2,62.6,88,29.91,10.0,North,6.9,-,0.00,Rain,Light Rain,360,2013-07-24 13:39:00
9:51 AM,64.9,62.1,90,29.89,10.0,NNW,9.2,-,0.00,,Overcast,340,2013-07-24 13:51:00
10:08 AM,64.4,62.6,94,29.92,8.0,NNW,8.1,-,0.00,,Overcast,340,2013-07-24 14:08:00
10:48 AM,64.4,60.8,88,29.94,10.0,NNW,6.9,-,0.00,,Overcast,330,2013-07-24 14:48:00
10:51 AM,64.9,61.0,87,29.92,10.0,NW,6.9,-,0.00,,Overcast,320,2013-07-24 14:51:00
11:25 AM,66.2,60.8,83,29.94,10.0,NNW,5.8,-,N/A,,Overcast,330,2013-07-24 15:25:00
11:37 AM,68.0,60.8,78,29.94,10.0,Variable,4.6,-,N/A,,Mostly Cloudy,0,2013-07-24 15:37:00
11:51 AM,68.0,59.0,73,29.93,10.0,North,6.9,-,N/A,,Overcast,360,2013-07-24 15:51:00
12:51 PM,68.0,59.0,73,29.93,10.0,NNW,3.5,-,N/A,,Overcast,340,2013-07-24 16:51:00
1:37 PM,69.8,60.8,73,29.95,10.0,WNW,9.2,-,N/A,,Overcast,300,2013-07-24 17:37:00
1:51 PM,69.1,59.0,70,29.93,10.0,NNW,8.1,-,N/A,,Overcast,340,2013-07-24 17:51:00
2:51 PM,73.0,61.0,66,29.93,10.0,Variable,4.6,-,N/A,,Mostly Cloudy,0,2013-07-24 18:51:00
3:41 PM,73.4,60.8,65,29.96,10.0,WNW,8.1,-,N/A,,Scattered Clouds,300,2013-07-24 19:41:00
3:51 PM,72.0,60.1,66,29.94,10.0,North,8.1,-,N/A,,Mostly Cloudy,350,2013-07-24 19:51:00
4:02 PM,71.6,57.2,60,29.96,10.0,NNW,8.1,-,N/A,,Mostly Cloudy,330,2013-07-24 20:02:00
4:38 PM,71.6,59.0,64,29.96,10.0,North,9.2,-,N/A,,Mostly Cloudy,350,2013-07-24 20:38:00
4:51 PM,69.1,57.0,65,29.94,10.0,North,9.2,17.3,N/A,,Mostly Cloudy,360,2013-07-24 20:51:00
5:29 PM,71.6,57.2,60,29.96,10.0,North,6.9,-,N/A,,Mostly Cloudy,350,2013-07-24 21:29:00
5:51 PM,70.0,57.0,63,29.94,10.0,NNW,6.9,-,N/A,,Mostly Cloudy,340,2013-07-24 21:51:00
6:51 PM,68.0,55.0,63,29.94,10.0,North,5.8,-,N/A,,Overcast,350,2013-07-24 22:51:00
7:51 PM,66.0,55.9,70,29.95,10.0,NNW,4.6,-,N/A,,Partly Cloudy,330,2013-07-24 23:51:00
8:51 PM,61.0,57.0,87,29.97,10.0,Calm,Calm,-,N/A,,Partly Cloudy,0,2013-07-25 00:51:00
9:51 PM,59.0,55.9,90,30.00,10.0,Calm,Calm,-,N/A,,Partly Cloudy,0,2013-07-25 01:51:00
10:51 PM,57.9,55.9,93,30.01,10.0,Calm,Calm,-,N/A,,Mostly Cloudy,0,2013-07-25 02:51:00
11:51 PM,57.0,54.0,89,30.01,10.0,Calm,Calm,-,N/A,,Clear,0,2013-07-25 03:51:00